Preview of NWS' New Version of Forecast
This preview is not operational and should not be used for support decisions.

Regional Weather Roundup (RWR)

Issued by Gray - Portland, ME (GYX)

                            
046 
ASUS41 KGYX 190105
RWRGYX
WEATHER ROUNDUP FOR MAINE AND NEW HAMPSHIRE
NATIONAL WEATHER SERVICE GRAY ME
800 PM EST SUN FEB 18 2018

MEZ002-005-006-010-012-015-018-020-021-024-026-027-029-190200-
MAINE
  
CITY           SKY/WX    TMP DP  RH WIND       PRES   REMARKS
PORTLAND       FAIR      29  20  69 SE5       30.44R                  
SANFORD        FAIR      30  18  60 CALM      30.44R                  
BAR HARBOR     FAIR      31  23  72 W3        30.43R                  
WISCASSET      FAIR      26  22  84 CALM      30.45R                  
ROCKLAND       FAIR      32  21  64 CALM      30.43R                  
FRYEBURG       FAIR      26  19  74 W3        30.41R                  
LEWISTONAUBURN FAIR      30  20  66 E3        30.42R                  
AUGUSTA        FAIR      31  17  56 CALM      30.42R                  
WATERVILLE     FAIR      30  19  63 CALM      30.37R                  
BANGOR         FAIR      32  19  58 W3        30.41R                  
GREENVILLE       N/A     22  13  68 CALM      30.30R                  
MILLINOCKET    FAIR      22  17  81 CALM      30.37R                  
HOULTON        CLOUDY    28  16  60 W5        30.31R                  
PRESQUE ISLE   FAIR      22  13  68 W5        30.32R                  
FRENCHVILLE    FAIR      25  16  68 NW5       30.26R                  
CARIBOU        MOCLDY    26  16  65 NW5       30.29R                  
$$

NHZ002-005-008-009-011-012-014-190200-
NEW HAMPSHIRE
  
CITY           SKY/WX    TMP DP  RH WIND       PRES   REMARKS
PORTSMOUTH     PTCLDY    31  19  60 CALM      30.43R                  
ROCHESTER      FAIR      28  19  69 E3        30.43R                  
NASHUA         FAIR      30  23  75 NW6       30.45R                  
MANCHESTER     FAIR      31  21  66 CALM      30.43R                  
CONCORD        FAIR      27  21  78 SE3       30.44R                  
LACONIA        FAIR      23  18  81 S5        30.43R                  
PLYMOUTH       FAIR      24  20  86 CALM      30.43R                  
BERLIN         MOCLDY    22  18  85 CALM      30.37R                  
WHITEFIELD     FOG       15  14  95 S3        30.40R VSB 1            
JAFFREY        FAIR      24  21  88 CALM      30.41R                  
KEENE          MOCLDY    27  20  75 CALM      30.44R                  
LEBANON        FAIR      23  18  81 CALM      30.43R                  
MT WASHINGTON  BLWGSNOW   7   7 100 W45         N/A  VSB 0   WCI -20  
$$

VTZ005-007-008-190200-
VERMONT
  
CITY           SKY/WX    TMP DP  RH WIND       PRES   REMARKS
ST JOHNSBURY     N/A     24  22  91 MISG      30.41R                  
MONTPELIER     CLOUDY    29  20  69 SW6       30.42R                  
BURLINGTON     MOCLDY    34  22  61 S6        30.42R                  
$$

MAZ007-012-024-CTZ003-RIZ002-NYZ038-NYZ072-190200-
SOUTHERN NEW ENGLAND AND NY
  
CITY           SKY/WX    TMP DP  RH WIND       PRES   REMARKS
BOSTON         FAIR      38  22  52 N7        30.46R                  
WORCESTER      FAIR      29  19  66 W6        30.42R                  
NANTUCKET      FAIR      32  29  88 S5        30.47R                  
HARTFORD       FAIR      30  21  69 CALM      30.48R                  
ALBANY         MOCLDY    29  20  69 CALM      30.48R                  
NEW YORK CITY  MOCLDY    40  25  55 N3        30.47R                  
$$

ANZ081-ANZ082-ANZ150-NHZ014-MEZ023>029-190200-
COASTAL MARINE OBSERVATIONS
  
STATION/POSITION TIME  TEMP    WIND        PRES    WAVE
                       AIR SEA DIR/SP/G            HT/PER
                 (UTC) (F)     (DEG/KT/KT) (MB)    (FT/S)
MOUNT DESERT ROC 0000   37     310/ 12/ 13 1028.8R
MATINICUS ROCK   0000   37     320/ 12/ 13 1028.9R
ISLE OF SHOALS   0000   38     310/ 10/ 11 1030.1R
JEFFREYS LEDGE   0036      42                N/A     3/ 7
GEORGES BANK BUO 2350   44 58               986.8   21/ 9
$$

.............KEY..............
   WCI - WIND CHILL
   TC  - TEMPERATURE IN CELSIUS
   VSB - VISIBILITY IN MILES
   HX  - HEAT INDEX
   FAIR- INDICATES FEW OR NO CLOUDS BELOW 12,000 FT, WITH NO 
         SIGNIFICANT WEATHER AND/OR OBSTRUCTIONS TO VISIBILITY.